Warning: Javascript must be enabled to use all the features on this page!


Page Loading - Please Wait...

* We've detected you're using a mobile device. Find our Next Generation Station Page here.
Click to hideNews Bulletins

Peak Streamflow for the Nation

USGS 01054300 Ellis River at South Andover, Maine

Oxford County, Maine
Hydrologic Unit Code 01040002
Latitude  44°35'36", Longitude  70°43'59" NAD83
Drainage area 130  square miles
Contributing drainage area 130  square miles
Gage datum 620.00 feet above NGVD29
Output formats
Table
Graph
Tab-separated file
peakfq (watstore) format
Reselect output format
Water
Year
Date Gage
Height
(feet)
Stream-
flow
(cfs)
1964 1963-11-08 16.45 3,520
1965 1964-11-27 13.56 2,060
1966 1966-04-23 12.752 1,720
1967 1966-11-03 17.881 5,460
1968 1968-04-25 18.22 5,930
1969 1969-07-30 19.14 7,580
1970 1969-12-29 19.23 7,760
1971 1971-05-04 16.76 4,110
1972 1972-05-08 15.25 2,800
1973 1973-07-01 17.61 5,100
1974 1973-12-22 17.86 5,430
1975 1974-12-09 15.34 2,850
1976 1976-04-02   6,5802
1977 1976-10-21 16.35 3,460
1978 1977-10-10 15.61 3,050
1979 1979-04-28 17.51 4,980
1980 1980-04-10 16.95 4,320
1981 1981-09-24 16.552 3,900
1982 1982-04-27 16.67 4,020
2001 2001-04-25 16.54 3,710
2002 2002-04-14 16.96 4,330
2003 2003-03-30 12.94 1,660
2004 2003-12-18 19.26 7,830
2005 2005-04-03 17.67 5,180
2006 2006-01-19 16.89 4,250
2007 2006-10-29 17.96 5,570
2008 2008-04-30 16.28 3,630
2009 2008-11-26 16.54 3,890
2010 2010-03-24 16.31 3,660
2011 2010-12-13 18.30 6,770
2012 2012-06-03 17.64 5,560
2013 2013-05-25 15.58 2,950
2014 2014-04-16 18.18 6,540
2015 2015-04-21 16.24 3,580
2016 2016-01-11 15.86 3,190
2017 2017-07-02 16.62 4,050
2018 2017-10-30 18.20 7,080
2019 2019-04-21 17.11 4,930
?
  Peak Gage-Height Qualification Codes.
?
  Peak Streamflow Qualification Codes.